| time (UTC) | temp F | wind direction | speed MPH | gust MPH | rain 1hr in | rain 24hr in | rain mn in | humidity % | barometer mb |
| 20260505111516 | 76 | 202 | 7.0 | 15.0 | 0.00 | 0.00 | 0.00 | 86 | 1010.0 |
| 20260505111004 | 75 | 210 | 7.0 | 18.0 | 0.00 | 0.00 | 0.00 | 86 | 1009.8 |
| 20260505110503 | 75 | 220 | 9.0 | 18.0 | 0.00 | 0.00 | 0.00 | 86 | 1009.8 |
| 20260505102004 | 75 | 192 | 8.0 | 17.0 | 0.00 | 0.00 | 0.00 | 85 | 1010.0 |
| 20260505101522 | 75 | 201 | 10.0 | 17.0 | 0.00 | 0.00 | 0.00 | 85 | 1009.9 |
| 20260505101004 | 75 | 196 | 7.0 | 18.0 | 0.00 | 0.00 | 0.00 | 85 | 1009.9 |
| 20260505100504 | 75 | 194 | 11.0 | 18.0 | 0.00 | 0.00 | 0.00 | 85 | 1010.0 |
| 20260505100021 | 75 | 194 | 9.0 | 18.0 | 0.00 | 0.00 | 0.00 | 85 | 1010.1 |
| 20260505095504 | 75 | 200 | 8.0 | 16.0 | 0.00 | 0.00 | 0.00 | 85 | 1010.2 |
| 20260505095004 | 75 | 194 | 9.0 | 16.0 | 0.00 | 0.00 | 0.00 | 85 | 1010.1 |
| 20260505094508 | 75 | 197 | 10.0 | 16.0 | 0.00 | 0.00 | 0.00 | 85 | 1010.1 |
| 20260505094005 | 75 | 196 | 7.0 | 17.0 | 0.00 | 0.00 | 0.00 | 84 | 1010.2 |
| 20260505093503 | 75 | 205 | 10.0 | 21.0 | 0.00 | 0.00 | 0.00 | 84 | 1010.1 |
| 20260505093010 | 75 | 207 | 9.0 | 21.0 | 0.00 | 0.00 | 0.00 | 84 | 1010.1 |
| 20260505092503 | 75 | 185 | 9.0 | 20.0 | 0.00 | 0.00 | 0.00 | 84 | 1010.0 |
| 20260505092003 | 75 | 172 | 10.0 | 18.0 | 0.00 | 0.00 | 0.00 | 84 | 1010.1 |
| 20260505091508 | 75 | 177 | 10.0 | 21.0 | 0.00 | 0.00 | 0.00 | 84 | 1010.1 |
| 20260505091005 | 75 | 201 | 9.0 | 21.0 | 0.00 | 0.00 | 0.00 | 84 | 1010.1 |
| 20260505090503 | 75 | 188 | 11.0 | 17.0 | 0.00 | 0.00 | 0.00 | 84 | 1010.1 |
| 20260505090012 | 75 | 173 | 9.0 | 17.0 | 0.00 | 0.00 | 0.00 | 84 | 1010.0 |
| 20260505085503 | 75 | 196 | 9.0 | 17.0 | 0.00 | 0.00 | 0.00 | 84 | 1010.0 |
| 20260505085004 | 75 | 212 | 10.0 | 21.0 | 0.00 | 0.00 | 0.00 | 84 | 1010.0 |
| 20260505084512 | 75 | 207 | 11.0 | 22.0 | 0.00 | 0.00 | 0.00 | 83 | 1010.0 |
| 20260505084003 | 75 | 200 | 12.0 | 22.0 | 0.00 | 0.00 | 0.00 | 83 | 1010.1 |
| 20260505083504 | 75 | 214 | 11.0 | 22.0 | 0.00 | 0.00 | 0.00 | 83 | 1010.3 |
| 20260505083013 | 75 | 214 | 9.0 | 18.0 | 0.00 | 0.00 | 0.00 | 83 | 1010.3 |
| 20260505082505 | 76 | 205 | 10.0 | 19.0 | 0.00 | 0.00 | 0.00 | 83 | 1010.3 |
| 20260505082003 | 75 | 205 | 9.0 | 19.0 | 0.00 | 0.00 | 0.00 | 83 | 1010.4 |
| 20260505081514 | 75 | 205 | 8.0 | 18.0 | 0.00 | 0.00 | 0.00 | 83 | 1010.4 |
| 20260505081003 | 75 | 177 | 9.0 | 18.0 | 0.00 | 0.00 | 0.00 | 83 | 1010.4 |
| 20260505080503 | 75 | 209 | 10.0 | 20.0 | 0.00 | 0.00 | 0.00 | 83 | 1010.4 |
| 20260505080013 | 75 | 178 | 9.0 | 20.0 | 0.00 | 0.00 | 0.00 | 83 | 1010.5 |
| 20260505075502 | 75 | 171 | 10.0 | 18.0 | 0.00 | 0.00 | 0.00 | 83 | 1010.5 |
| 20260505075008 | 75 | 190 | 11.0 | 20.0 | 0.00 | 0.00 | 0.00 | 82 | 1010.5 |
| 20260505074512 | 75 | 183 | 10.0 | 20.0 | 0.00 | 0.00 | 0.00 | 82 | 1010.5 |
| 20260505074009 | 75 | 210 | 11.0 | 19.0 | 0.00 | 0.00 | 0.00 | 82 | 1010.5 |
| 20260505073504 | 75 | 197 | 12.0 | 19.0 | 0.00 | 0.00 | 0.00 | 82 | 1010.5 |
| 20260505073031 | 75 | 208 | 11.0 | 19.0 | 0.00 | 0.00 | 0.00 | 82 | 1010.6 |
| 20260505072507 | 75 | 196 | 10.0 | 20.0 | 0.00 | 0.00 | 0.00 | 81 | 1010.7 |
| 20260505072003 | 75 | 195 | 11.0 | 20.0 | 0.00 | 0.00 | 0.00 | 81 | 1010.6 |
| 20260505071504 | 75 | 225 | 11.0 | 20.0 | 0.00 | 0.00 | 0.00 | 81 | 1010.8 |
| 20260505071003 | 75 | 179 | 11.0 | 20.0 | 0.00 | 0.00 | 0.00 | 81 | 1011.0 |
| 20260505070503 | 75 | 188 | 12.0 | 18.0 | 0.00 | 0.00 | 0.00 | 81 | 1011.2 |
| 20260505070013 | 75 | 237 | 10.0 | 19.0 | 0.00 | 0.00 | 0.00 | 81 | 1011.2 |
| 20260505065503 | 75 | 198 | 10.0 | 19.0 | 0.00 | 0.00 | 0.00 | 81 | 1011.2 |
| 20260505065006 | 75 | 198 | 10.0 | 21.0 | 0.00 | 0.00 | 0.00 | 80 | 1011.2 |
| 20260505064518 | 75 | 182 | 12.0 | 21.0 | 0.00 | 0.00 | 0.00 | 81 | 1011.5 |
| 20260505064005 | 75 | 225 | 10.0 | 20.0 | 0.00 | 0.00 | 0.00 | 81 | 1011.6 |
| 20260505063506 | 75 | 228 | 13.0 | 19.0 | 0.00 | 0.00 | 0.00 | 81 | 1011.4 |
| 20260505063004 | 75 | 210 | 11.0 | 19.0 | 0.00 | 0.00 | 0.00 | 80 | 1011.3 |
| 20260505062503 | 75 | 187 | 11.0 | 22.0 | 0.00 | 0.00 | 0.00 | 80 | 1011.3 |
| 20260505062006 | 75 | 203 | 9.0 | 22.0 | 0.00 | 0.00 | 0.00 | 80 | 1011.3 |
| 20260505061514 | 75 | 180 | 10.0 | 22.0 | 0.00 | 0.00 | 0.00 | 79 | 1011.3 |
| 20260505061003 | 75 | 179 | 10.0 | 21.0 | 0.00 | 0.00 | 0.00 | 79 | 1011.5 |
| 20260505060503 | 75 | 196 | 8.0 | 17.0 | 0.00 | 0.00 | 0.00 | 79 | 1011.8 |
| 20260505060010 | 75 | 164 | 10.0 | 20.0 | 0.00 | 0.00 | 0.00 | 79 | 1011.9 |
| 20260505055503 | 75 | 216 | 11.0 | 20.0 | 0.00 | 0.00 | 0.00 | 79 | 1011.9 |
| 20260505055003 | 75 | 200 | 9.0 | 19.0 | 0.00 | 0.00 | 0.00 | 79 | 1011.5 |
| 20260505054511 | 75 | 194 | 10.0 | 23.0 | 0.00 | 0.00 | 0.00 | 79 | 1011.4 |
| 20260505054002 | 75 | 159 | 10.0 | 23.0 | 0.00 | 0.00 | 0.00 | 79 | 1011.4 |
| 20260505053507 | 75 | 200 | 9.0 | 23.0 | 0.00 | 0.00 | 0.00 | 79 | 1011.5 |
| 20260505053030 | 75 | 180 | 11.0 | 23.0 | 0.00 | 0.00 | 0.00 | 78 | 1011.6 |
| 20260505052507 | 75 | 188 | 11.0 | 21.0 | 0.00 | 0.00 | 0.00 | 79 | 1012.0 |
| 20260505052009 | 75 | 194 | 11.0 | 21.0 | 0.00 | 0.00 | 0.00 | 79 | 1011.9 |
| 20260505051511 | 75 | 186 | 12.0 | 21.0 | 0.00 | 0.00 | 0.00 | 78 | 1011.9 |
| 20260505051003 | 75 | 190 | 11.0 | 22.0 | 0.00 | 0.00 | 0.00 | 78 | 1011.8 |
| 20260505050503 | 75 | 207 | 10.0 | 22.0 | 0.00 | 0.00 | 0.00 | 78 | 1011.8 |
| 20260505041013 | 75 | 190 | 9.0 | 19.0 | 0.00 | 0.00 | 0.00 | 77 | 1012.5 |
| 20260505040510 | 75 | 207 | 8.0 | 19.0 | 0.00 | 0.00 | 0.00 | 77 | 1012.6 |
| 20260505040020 | 75 | 203 | 8.0 | 18.0 | 0.00 | 0.00 | 0.00 | 77 | 1012.6 |
| 20260505035502 | 75 | 169 | 9.0 | 19.0 | 0.00 | 0.00 | 0.00 | 76 | 1012.5 |
| 20260505035003 | 75 | 164 | 9.0 | 19.0 | 0.00 | 0.00 | 0.00 | 76 | 1012.4 |
| 20260505034507 | 75 | 200 | 10.0 | 19.0 | 0.00 | 0.00 | 0.00 | 76 | 1012.5 |
| 20260505034004 | 75 | 196 | 7.0 | 17.0 | 0.00 | 0.00 | 0.00 | 76 | 1012.6 |
| 20260505033505 | 75 | 188 | 8.0 | 18.0 | 0.00 | 0.00 | 0.00 | 76 | 1012.6 |
| 20260505033012 | 75 | 220 | 9.0 | 18.0 | 0.00 | 0.00 | 0.00 | 75 | 1012.5 |
| 20260505032505 | 75 | 189 | 7.0 | 19.0 | 0.00 | 0.00 | 0.00 | 76 | 1012.7 |
| 20260505032005 | 75 | 187 | 10.0 | 19.0 | 0.00 | 0.00 | 0.00 | 75 | 1012.5 |
| 20260505031515 | 75 | 197 | 9.0 | 16.0 | 0.00 | 0.00 | 0.00 | 75 | 1012.5 |
| 20260505031009 | 75 | 204 | 9.0 | 19.0 | 0.00 | 0.00 | 0.00 | 75 | 1012.6 |
| 20260505030507 | 75 | 204 | 10.0 | 19.0 | 0.00 | 0.00 | 0.00 | 75 | 1012.7 |
| 20260505030020 | 75 | 168 | 10.0 | 16.0 | 0.00 | 0.00 | 0.00 | 75 | 1012.6 |
| 20260505025507 | 75 | 180 | 9.0 | 16.0 | 0.00 | 0.00 | 0.00 | 75 | 1012.7 |
| 20260505025006 | 75 | 188 | 7.0 | 16.0 | 0.00 | 0.00 | 0.00 | 75 | 1012.7 |
| 20260505024521 | 75 | 172 | 9.0 | 19.0 | 0.00 | 0.00 | 0.00 | 74 | 1012.6 |
| 20260505024002 | 75 | 175 | 8.0 | 19.0 | 0.00 | 0.00 | 0.00 | 75 | 1012.5 |
| 20260505023502 | 75 | 175 | 9.0 | 17.0 | 0.00 | 0.00 | 0.00 | 74 | 1012.6 |
| 20260505023014 | 75 | 175 | 8.0 | 16.0 | 0.00 | 0.00 | 0.00 | 75 | 1012.6 |
| 20260505022504 | 75 | 211 | 9.0 | 18.0 | 0.00 | 0.00 | 0.00 | 75 | 1012.6 |
| 20260505022004 | 75 | 180 | 7.0 | 18.0 | 0.00 | 0.00 | 0.00 | 74 | 1012.6 |
| 20260505021514 | 76 | 188 | 7.0 | 17.0 | 0.00 | 0.00 | 0.00 | 74 | 1012.4 |
| 20260505021005 | 76 | 196 | 7.0 | 18.0 | 0.00 | 0.00 | 0.00 | 74 | 1012.3 |
| 20260505020503 | 75 | 170 | 8.0 | 18.0 | 0.00 | 0.00 | 0.00 | 74 | 1012.3 |
| 20260505020019 | 76 | 196 | 7.0 | 16.0 | 0.00 | 0.00 | 0.00 | 73 | 1012.3 |
| 20260505015505 | 76 | 174 | 8.0 | 16.0 | 0.00 | 0.00 | 0.00 | 72 | 1012.3 |
| 20260505015007 | 75 | 195 | 9.0 | 17.0 | 0.00 | 0.00 | 0.00 | 72 | 1012.3 |
| 20260505014521 | 76 | 190 | 7.0 | 17.0 | 0.00 | 0.00 | 0.00 | 72 | 1012.2 |
| 20260505014006 | 76 | 171 | 8.0 | 16.0 | 0.00 | 0.00 | 0.00 | 73 | 1012.4 |
| 20260505013506 | 75 | 171 | 8.0 | 13.0 | 0.00 | 0.00 | 0.00 | 72 | 1012.4 |
| 20260505013028 | 76 | 180 | 8.0 | 14.0 | 0.00 | 0.00 | 0.00 | 72 | 1012.4 |
| 20260505012503 | 76 | 190 | 7.0 | 13.0 | 0.00 | 0.00 | 0.00 | 72 | 1012.3 |
| 20260505012003 | 76 | 185 | 6.0 | 14.0 | 0.00 | 0.00 | 0.00 | 73 | 1012.1 |
| 20260505011515 | 76 | 180 | 6.0 | 14.0 | 0.00 | 0.00 | 0.00 | 72 | 1012.0 |
| 20260505011008 | 76 | 176 | 7.0 | 14.0 | 0.00 | 0.00 | 0.00 | 72 | 1011.9 |
| 20260505010505 | 76 | 169 | 7.0 | 15.0 | 0.00 | 0.00 | 0.00 | 72 | 1012.1 |
| 20260505010029 | 76 | 198 | 7.0 | 17.0 | 0.00 | 0.00 | 0.00 | 71 | 1012.1 |
| 20260505005504 | 76 | 191 | 7.0 | 17.0 | 0.00 | 0.00 | 0.00 | 71 | 1011.9 |
| 20260505005004 | 76 | 187 | 5.0 | 13.0 | 0.00 | 0.00 | 0.00 | 70 | 1011.8 |
| 20260505004520 | 76 | 186 | 7.0 | 18.0 | 0.00 | 0.00 | 0.00 | 70 | 1011.7 |
| 20260505004006 | 76 | 160 | 8.0 | 18.0 | 0.00 | 0.00 | 0.00 | 70 | 1011.8 |
| 20260505003508 | 76 | 211 | 8.0 | 15.0 | 0.00 | 0.00 | 0.00 | 70 | 1012.1 |
| 20260505003025 | 76 | 192 | 7.0 | 15.0 | 0.00 | 0.00 | 0.00 | 69 | 1011.9 |
| 20260505002510 | 77 | 200 | 6.0 | 13.0 | 0.00 | 0.00 | 0.00 | 69 | 1011.9 |
| 20260505002010 | 77 | 186 | 6.0 | 13.0 | 0.00 | 0.00 | 0.00 | 69 | 1012.1 |
| 20260505001527 | 77 | 164 | 5.0 | 13.0 | 0.00 | 0.00 | 0.00 | 69 | 1012.3 |
| 20260505001009 | 77 | 187 | 7.0 | 13.0 | 0.00 | 0.00 | 0.00 | 68 | 1012.4 |
| 20260505000504 | 77 | 184 | 8.0 | 11.0 | 0.00 | 0.00 | 0.00 | 68 | 1012.1 |
| 20260505000025 | 77 | 184 | 6.0 | 14.0 | 0.00 | 0.00 | 0.00 | 67 | 1012.1 |
| 20260504235506 | 77 | 201 | 7.0 | 14.0 | 0.00 | 0.00 | 0.00 | 67 | 1012.4 |
| 20260504235007 | 78 | 185 | 6.0 | 15.0 | 0.00 | 0.00 | 0.00 | 67 | 1012.6 |
| 20260504234504 | 78 | 200 | 8.0 | 15.0 | 0.00 | 0.00 | 0.00 | 66 | 1012.6 |
| 20260504234004 | 78 | 205 | 7.0 | 16.0 | 0.00 | 0.00 | 0.00 | 65 | 1012.4 |
| 20260504233502 | 78 | 196 | 5.0 | 16.0 | 0.00 | 0.00 | 0.00 | 65 | 1012.7 |
| 20260504233003 | 78 | 174 | 6.0 | 15.0 | 0.00 | 0.00 | 0.00 | 65 | 1012.8 |
| 20260504232502 | 79 | 202 | 8.0 | 15.0 | 0.00 | 0.00 | 0.00 | 64 | 1012.9 |
| 20260504232003 | 78 | 169 | 7.0 | 15.0 | 0.00 | 0.00 | 0.00 | 64 | 1013.0 |
| 20260504231505 | 78 | 186 | 8.0 | 15.0 | 0.00 | 0.00 | 0.00 | 64 | 1013.0 |
| 20260504231002 | 79 | 184 | 7.0 | 17.0 | 0.00 | 0.00 | 0.00 | 64 | 1013.0 |
| 20260504230502 | 79 | 198 | 7.0 | 17.0 | 0.00 | 0.00 | 0.00 | 63 | 1013.1 |
| 20260504230013 | 80 | 189 | 5.0 | 16.0 | 0.00 | 0.00 | 0.00 | 62 | 1013.2 |
| 20260504225503 | 80 | 182 | 7.0 | 16.0 | 0.00 | 0.00 | 0.00 | 62 | 1013.0 |
| 20260504225002 | 80 | 180 | 7.0 | 15.0 | 0.00 | 0.00 | 0.00 | 62 | 1013.1 |
| 20260504224514 | 80 | 190 | 6.0 | 15.0 | 0.00 | 0.00 | 0.00 | 62 | 1013.2 |
| 20260504224006 | 79 | 211 | 7.0 | 14.0 | 0.00 | 0.00 | 0.00 | 62 | 1013.4 |
| 20260504223503 | 79 | 213 | 6.0 | 14.0 | 0.00 | 0.00 | 0.00 | 63 | 1013.5 |
| 20260504223003 | 79 | 191 | 8.0 | 14.0 | 0.00 | 0.00 | 0.00 | 62 | 1013.5 |
| 20260504222502 | 79 | 168 | 7.0 | 14.0 | 0.00 | 0.00 | 0.00 | 62 | 1013.5 |
| 20260504222002 | 79 | 182 | 7.0 | 14.0 | 0.00 | 0.00 | 0.00 | 63 | 1013.5 |
| 20260504221519 | 79 | 164 | 6.0 | 13.0 | 0.00 | 0.00 | 0.00 | 63 | 1013.7 |
| 20260504221001 | 79 | 204 | 6.0 | 15.0 | 0.00 | 0.00 | 0.00 | 63 | 1013.7 |
| 20260504220502 | 80 | 183 | 6.0 | 15.0 | 0.00 | 0.00 | 0.00 | 62 | 1013.8 |
| 20260504220008 | 81 | 221 | 6.0 | 13.0 | 0.00 | 0.00 | 0.00 | 61 | 1013.6 |
| 20260504215502 | 81 | 215 | 5.0 | 13.0 | 0.00 | 0.00 | 0.00 | 61 | 1013.7 |
| 20260504215009 | 81 | 182 | 5.0 | 14.0 | 0.00 | 0.00 | 0.00 | 61 | 1013.8 |
| 20260504214513 | 81 | 197 | 7.0 | 14.0 | 0.00 | 0.00 | 0.00 | 60 | 1013.9 |
| 20260504214003 | 81 | 183 | 6.0 | 17.0 | 0.00 | 0.00 | 0.00 | 60 | 1013.9 |
| 20260504213503 | 81 | 200 | 9.0 | 17.0 | 0.00 | 0.00 | 0.00 | 60 | 1013.9 |
| 20260504213017 | 81 | 161 | 7.0 | 14.0 | 0.00 | 0.00 | 0.00 | 60 | 1013.9 |
| 20260504212508 | 81 | 169 | 7.0 | 14.0 | 0.00 | 0.00 | 0.00 | 59 | 1014.1 |
| 20260504212009 | 81 | 206 | 8.0 | 16.0 | 0.00 | 0.00 | 0.00 | 60 | 1014.1 |
| 20260504211503 | 81 | 200 | 7.0 | 16.0 | 0.00 | 0.00 | 0.00 | 59 | 1014.2 |
| 20260504211002 | 81 | 186 | 8.0 | 13.0 | 0.00 | 0.00 | 0.00 | 59 | 1014.2 |
| 20260504210504 | 81 | 200 | 6.0 | 15.0 | 0.00 | 0.00 | 0.00 | 59 | 1014.2 |
| 20260504210006 | 81 | 177 | 9.0 | 15.0 | 0.00 | 0.00 | 0.00 | 58 | 1014.4 |
| 20260504205503 | 81 | 194 | 8.0 | 15.0 | 0.00 | 0.00 | 0.00 | 59 | 1014.3 |
| 20260504205003 | 81 | 169 | 7.0 | 13.0 | 0.00 | 0.00 | 0.00 | 59 | 1014.4 |
| 20260504204511 | 81 | 171 | 7.0 | 13.0 | 0.00 | 0.00 | 0.00 | 58 | 1014.4 |
| 20260504204005 | 81 | 196 | 7.0 | 13.0 | 0.00 | 0.00 | 0.00 | 59 | 1014.5 |
| 20260504203503 | 81 | 153 | 7.0 | 15.0 | 0.00 | 0.00 | 0.00 | 58 | 1014.6 |
| 20260504203015 | 82 | 209 | 6.0 | 15.0 | 0.00 | 0.00 | 0.00 | 57 | 1014.7 |
| 20260504202508 | 82 | 207 | 6.0 | 14.0 | 0.00 | 0.00 | 0.00 | 58 | 1014.8 |
| 20260504202004 | 82 | 203 | 6.0 | 14.0 | 0.00 | 0.00 | 0.00 | 57 | 1014.8 |
| 20260504201520 | 82 | 202 | 8.0 | 14.0 | 0.00 | 0.00 | 0.00 | 57 | 1014.7 |
| 20260504201008 | 82 | 181 | 7.0 | 14.0 | 0.00 | 0.00 | 0.00 | 58 | 1014.7 |
| 20260504200511 | 82 | 201 | 7.0 | 14.0 | 0.00 | 0.00 | 0.00 | 57 | 1014.8 |
| 20260504200003 | 82 | 246 | 8.0 | 14.0 | 0.00 | 0.00 | 0.00 | 57 | 1015.0 |
| 20260504195504 | 82 | 204 | 7.0 | 14.0 | 0.00 | 0.00 | 0.00 | 57 | 1015.1 |
| 20260504195004 | 81 | 204 | 6.0 | 14.0 | 0.00 | 0.00 | 0.00 | 57 | 1015.3 |
| 20260504194506 | 82 | 187 | 9.0 | 13.0 | 0.00 | 0.00 | 0.00 | 56 | 1015.3 |
| 20260504194003 | 82 | 209 | 8.0 | 13.0 | 0.00 | 0.00 | 0.00 | 56 | 1015.2 |
| 20260504193503 | 81 | 173 | 6.0 | 14.0 | 0.00 | 0.00 | 0.00 | 57 | 1015.2 |
| 20260504193013 | 81 | 185 | 8.0 | 14.0 | 0.00 | 0.00 | 0.00 | 57 | 1015.3 |
| 20260504192503 | 81 | 202 | 8.0 | 14.0 | 0.00 | 0.00 | 0.00 | 57 | 1015.4 |
| 20260504192007 | 81 | 198 | 6.0 | 16.0 | 0.00 | 0.00 | 0.00 | 57 | 1015.4 |
| 20260504191527 | 82 | 186 | 9.0 | 16.0 | 0.00 | 0.00 | 0.00 | 57 | 1015.4 |
| 20260504191008 | 82 | 199 | 6.0 | 14.0 | 0.00 | 0.00 | 0.00 | 58 | 1015.5 |
| 20260504190506 | 82 | 236 | 6.0 | 14.0 | 0.00 | 0.00 | 0.00 | 58 | 1015.5 |
| 20260504190023 | 82 | 142 | 6.0 | 13.0 | 0.00 | 0.00 | 0.00 | 57 | 1015.4 |
| 20260504185507 | 82 | 194 | 8.0 | 16.0 | 0.00 | 0.00 | 0.00 | 57 | 1015.4 |
| 20260504185008 | 81 | 177 | 6.0 | 17.0 | 0.00 | 0.00 | 0.00 | 57 | 1015.6 |
| 20260504184503 | 81 | 219 | 9.0 | 17.0 | 0.00 | 0.00 | 0.00 | 56 | 1015.7 |
| 20260504184003 | 81 | 176 | 9.0 | 15.0 | 0.00 | 0.00 | 0.00 | 56 | 1015.8 |
| 20260504183504 | 82 | 219 | 7.0 | 14.0 | 0.00 | 0.00 | 0.00 | 56 | 1015.7 |
| 20260504183010 | 82 | 211 | 6.0 | 14.0 | 0.00 | 0.00 | 0.00 | 56 | 1015.7 |
| 20260504182503 | 81 | 194 | 6.0 | 13.0 | 0.00 | 0.00 | 0.00 | 57 | 1015.9 |
| 20260504182007 | 81 | 188 | 8.0 | 15.0 | 0.00 | 0.00 | 0.00 | 56 | 1015.9 |
| 20260504181517 | 81 | 220 | 8.0 | 15.0 | 0.00 | 0.00 | 0.00 | 56 | 1015.8 |
| 20260504181007 | 82 | 180 | 8.0 | 14.0 | 0.00 | 0.00 | 0.00 | 55 | 1015.9 |
| 20260504180507 | 81 | 220 | 8.0 | 16.0 | 0.00 | 0.00 | 0.00 | 55 | 1016.0 |
| 20260504180020 | 81 | 199 | 8.0 | 16.0 | 0.00 | 0.00 | 0.00 | 57 | 1016.1 |
| 20260504175507 | 81 | 210 | 6.0 | 16.0 | 0.00 | 0.00 | 0.00 | 58 | 1016.3 |
| 20260504175005 | 81 | 196 | 7.0 | 16.0 | 0.00 | 0.00 | 0.00 | 58 | 1016.3 |
| 20260504174523 | 81 | 187 | 9.0 | 15.0 | 0.00 | 0.00 | 0.00 | 57 | 1016.3 |
| 20260504174008 | 81 | 190 | 8.0 | 18.0 | 0.00 | 0.00 | 0.00 | 57 | 1016.4 |
| 20260504173509 | 81 | 163 | 9.0 | 18.0 | 0.00 | 0.00 | 0.00 | 56 | 1016.4 |
| 20260504173024 | 81 | 183 | 6.0 | 14.0 | 0.00 | 0.00 | 0.00 | 57 | 1016.6 |
| 20260504172503 | 81 | 205 | 7.0 | 17.0 | 0.00 | 0.00 | 0.00 | 57 | 1016.6 |
| 20260504172003 | 81 | 202 | 7.0 | 17.0 | 0.00 | 0.00 | 0.00 | 58 | 1016.6 |
| 20260504171510 | 81 | 198 | 7.0 | 16.0 | 0.00 | 0.00 | 0.00 | 56 | 1016.7 |
| 20260504171006 | 81 | 202 | 9.0 | 16.0 | 0.00 | 0.00 | 0.00 | 56 | 1016.9 |
| 20260504170504 | 81 | 178 | 8.0 | 15.0 | 0.00 | 0.00 | 0.00 | 56 | 1017.0 |
| 20260504151010 | 78 | 223 | 7.0 | 18.0 | 0.00 | 0.00 | 0.00 | 58 | 1017.4 |
| 20260504150511 | 78 | 202 | 6.0 | 18.0 | 0.00 | 0.00 | 0.00 | 58 | 1017.3 |
| 20260504141006 | 77 | 182 | 5.0 | 13.0 | 0.00 | 0.00 | 0.00 | 60 | 1017.1 |
| 20260504140503 | 77 | 188 | 9.0 | 13.0 | 0.00 | 0.00 | 0.00 | 60 | 1017.2 |
| 20260504130506 | 74 | 182 | 7.0 | 13.0 | 0.00 | 0.00 | 0.00 | 65 | 1017.0 |